This demonstration page uses our WeatherBlox Daily Observations layout. Learn more.

Left ArrowRight Arrow

40.97296, -117.73568

Hourly Observations for July 11, 2015

Temp ( °F °C ) Dew Point ( °F °C ) Humidity (%) Winds ( mph kmh ) Pressure ( in mb ) Visibility ( mi km ) Precip ( " mm )
12:56 am 00:56 Clear 54 12.2 49 9.4 83 83 S 8 13 29.88 1012 10 16 0.00 0.00
1:56 am 01:56 Clear 57 13.9 49 9.4 74 74 S 10 17 29.89 1012 10 16 0.00 0.00
2:56 am 02:56 Clear 57 13.9 49 9.4 74 74 S 8 13 29.87 1012 10 16 0.00 0.00
3:56 am 03:56 Cloudy 57 13.9 50 10 78 78 S 8 13 29.85 1011 10 16 0.00 0.00
4:56 am 04:56 Mostly Cloudy 56 13.3 50 10 81 81 ENE 3 6 29.88 1012 10 16 0.00 0.00
5:56 am 05:56 Cloudy 56 13.3 50 10 81 81 S 6 9 29.88 1012 10 16 0.00 0.00
6:56 am 06:56 Mostly Cloudy 60 15.6 51 10.6 72 72 S 6 9 29.88 1012 10 16 0.00 0.00
7:56 am 07:56 Cloudy with Light Rain 61 16.1 52 11.1 72 72 SE 3 6 29.92 1013 10 16 0.00 0.03
9:56 am 09:56 Sunny 69 20.6 49 9.4 49 49 VRB 3 6 29.92 1013 10 16 0.00 0.00
10:56 am 10:56 Mostly Cloudy 71 21.7 49 9.4 46 46 VRB 5 7 29.92 1013 10 16 0.00 0.00
12:56 pm 12:56 Mostly Cloudy 76 24.4 48 8.9 37 37 W 15 24 29.89 1012 10 16 0.00 0.00
1:56 pm 13:56 Mostly Sunny 78 25.6 47 8.3 33 33 SSW 10 17 29.87 1011 10 16 0.00 0.00
2:56 pm 14:56 Mostly Sunny 81 27.2 44 6.7 27 27 SW 20 31 29.85 1011 10 16 0.00 0.00
3:56 pm 15:56 Mostly Sunny 83 28.3 43 6.1 24 24 SW 18 30 29.84 1011 10 16 0.00 0.00
4:56 pm 16:56 Mostly Sunny 77 25 43 6.1 30 30 WSW 13 20 29.85 1011 10 16 0.00 0.00
5:56 pm 17:56 Mostly Cloudy 80 26.7 43 6.1 27 27 WSW 13 20 29.85 1011 10 16 0.00 0.00
6:56 pm 18:56 Mostly Sunny 78 25.6 42 5.6 28 28 WSW 14 22 29.86 1011 10 16 0.00 0.00
7:56 pm 19:56 Sunny 74 23.3 39 3.9 28 28 W 12 19 29.88 1012 10 16 0.00 0.00
8:56 pm 20:56 Clear 64 17.8 41 5 43 43 SW 7 11 29.91 1013 10 16 0.00 0.00
9:56 pm 21:56 Clear 62 16.7 42 5.6 48 48 SW 10 17 29.93 1014 10 16 0.00 0.00
10:56 pm 22:56 Clear 63 17.2 41 5 45 45 Calm 29.93 1014 10 16 0.00 0.00
11:56 pm 23:56 Clear 61 16.1 41 5 48 48 WNW 6 9 29.94 1014 10 16 0.00 0.00

Powered by AerisWeather